Regional Weather Roundup
Issued by NWS Sterling, VA

Home | Current Version | Previous Version | Graphics & Text | Print | Product List | Glossary On
Versions: 1 2 3 4 5 6 7 8 9 10 11 12 13 14 15 16 17 18 19 20 21 22 23 24 25 26 27 28 29 30 31 32 33 34 35 36 37 38 39 40 41 42 43 44 45 46 47 48 49 50
000
ASUS41 KLWX 230810
RWRLWX

REGIONAL WEATHER ROUNDUP
NATIONAL WEATHER SERVICE BALTIMORE MD/WASHINGTON DC
300 AM EST MON JAN 23 2017

Note: "FAIR" indicates few or no clouds below 12,000 feet
with no significant weather and/or obstructions to visibility.
 TC=TEMPERATURE CELSIUS

 * =Non NWS site. Station does not report precipitation (e.g. rain,
    snow, etc.), thunder, or fog.

DCZ001-MDZ009-015-VAZ040>042-051-053>054-230900-
WASHINGTON METRO

CITY           SKY/WX    TMP DP  RH WIND       PRES   REMARKS
WASHINGTON NAT CLOUDY    49  47  93 NE21      29.58F FOG
DULLES         LGT RAIN  48  45  89 E20G29    29.57F FOG
ANDREWS AFB    DRIZZLE   48  46  93 NE20G30   29.55F FOG
FT BELVOIR     CLOUDY    49  47  91 VRB6      29.57S
QUANTICO       LGT RAIN  49  48  97 E17G28    29.56F VSB 1
COLLEGE PARK*  CLOUDY    45  45 100 NE9G21    29.60S
LEESBURG*      MIX PCPN  50  50 100 E16G24    29.60S
GAITHERSBURG*  CLOUDY    46  43  87 E10G23    29.64R

$$

MDZ006>007-011-014-230900-
BALTIMORE METRO

CITY           SKY/WX    TMP DP  RH WIND       PRES   REMARKS
BWI AIRPORT    CLOUDY    46  46 100 E20       29.62S FOG
MD SCIENCE CTR   N/A     47  43  86 MISG      29.63S
ANNAPOLIS      CLOUDY    48  32  53 NE12      29.61R HAZE
FORT MEADE*    CLOUDY    45  43  93 E13G18    29.64R

$$

MDZ012-015-019>023-230900-
MARYLAND EASTERN SHORE

CITY           SKY/WX    TMP DP  RH WIND       PRES   REMARKS
OCEAN CITY     LGT RAIN  48  48 100 NE16G28   29.56F FOG
SALISBURY      LGT RAIN  50  49  96 NE22G30   29.55F FOG
BAY BRIDGE AP* LGT RAIN  46  46 100 E14G21    29.61R FOG
CAMBRIDGE*     CLOUDY    48  46  93 E14G24    29.55F
EASTON*        LGT RAIN  49  47  91 E22G28    29.62F

$$

MDZ017>025-230900-
SOUTHERN MARYLAND

CITY           SKY/WX    TMP DP  RH WIND       PRES   REMARKS
PATUXENT RIVER CLOUDY    49  48  97 NE17G26   29.53F
ST INIGOES     CLOUDY    50  48  93 NE16G26   29.51F
LEONARDTOWN*   CLOUDY    48  46  93 E9G22     29.55F

$$

MDZ003>005-230900-
NORTH CENTRAL MARYLAND

CITY           SKY/WX    TMP DP  RH WIND       PRES   REMARKS
FREDERICK*     CLOUDY    46  46 100 E7G18     29.64S
HAGERSTOWN APT LGT RAIN  48  44  86 E16       29.62S FOG
WESTMINSTER*   DRIZZLE   45  43  93 E16G24    29.62S

$$

MDZ501>502-230900-
WESTERN MARYLAND

CITY           SKY/WX    TMP DP  RH WIND       PRES   REMARKS
OAKLAND*         N/A     41  41 100 E24G39    29.47F FOG
CUMBERLAND*    CLOUDY    50  46  87 NE7G20    29.60F

$$

VAZ025>031-230900-
SHENANDOAH VALLEY

CITY           SKY/WX    TMP DP  RH WIND       PRES   REMARKS
WINCHESTER*    LGT RAIN  46  45  93 E10G21    29.57S
FRONT ROYAL*   CLOUDY    46  46 100 NE6       29.54F
LURAY*         LGT RAIN  48  48 100 N13       29.52F
NEW MARKET*    CLOUDY    49  45  87 N7G16     29.50F
STAUNTON*      DRIZZLE   47  46  98 NE10      29.48F
WAYNESBORO*    CLOUDY    47  46  96 NE8       29.46F

$$

WVZ021-048>050-054>055-230900-
EASTERN WEST VIRGINIA PANHANDLE

CITY           SKY/WX    TMP DP  RH WIND       PRES   REMARKS
MARTINSBURG    LGT RAIN  48  46  93 E14G22    29.59S FOG
PETERSBURG*    RAIN      47  46  97 CALM      29.53F

$$

VAZ036>039-050-230900-
CENTRAL FOOTHILLS

CITY           SKY/WX    TMP DP  RH WIND       PRES   REMARKS
CHARLOTTESVILL LGT RAIN  51  49  92 NE14G21   29.47F FOG
CULPEPER*      DRIZZLE   50  50  97 E9        29.54F
ORANGE*        LGT RAIN  50  50 100 N10G18    29.52F
GORDONSVILLE*  CLOUDY    49  49 100 NE10G16   29.49F FOG
WARRENTON*     LGT RAIN  50  47  88 NE15G21   29.53F

$$

VAZ055>057-230900-
NORTH AND CENTRAL PIEDMONT

CITY           SKY/WX    TMP DP  RH WIND       PRES   REMARKS
FREDERICKSBRG* DRIZZLE   49  49 100 NE18G28   29.51F
STAFFORD*      LGT RAIN  49  49 100 NE13G24   29.57F

$$

NCZ024-NYZ072-PAZ021-071-VAZ022-071-230900-
OTHER REGIONAL OBSERVATIONS

CITY           SKY/WX    TMP DP  RH WIND       PRES   REMARKS
NEW YORK CITY  CLOUDY    42  39  89 E16G32    29.84S
PHILADELPHIA   CLOUDY    45  42  89 NE16G29   29.72F FOG
PITTSBURGH     CLOUDY    50  46  86 E12G21    29.51F
ROANOKE        RAIN      49  47  93 NE12      29.37F
RICHMOND       DRIZZLE   50  50 100 NE13      29.45F FOG
RALEIGH        CLOUDY    52  51  97 E14G25    29.29F FOG

$$

ANZ530>537-230900-
MARINE OBSERVATIONS

STATION/POSITION TIME  TEMP    WIND        PRES
                       AIR SEA DIR/SP/G
                 (UTC) (F)     (DEG/KT/KT) (MB)
THOMAS PT LIGHT  0800   47 40   50/ 19/ 21   N/A
BALT KEY BRIDGE  0748   45      50/ 16/ 18 1003.2S
COVE POINT       0748   48      90/ 20/ 25 1001.3F
LEWISETTA        0748   47 44   70/ 14/ 19  998.7F
SOLOMONS ISLAND  0748   49 42   60/ 18/ 21   N/A
PINEY POINT      0748           80/ 17/ 22   N/A

$$




USA.gov is the U.S. government's official web portal to all federal, state and local government web resources and services.